San Carlos, CA

4:12 PM PDT on April 28, 2017 (GMT -0700)
San Carlos

Weather History for KSQL - August, 2013

Change the Weather History Date:

Monday, August 12, 2013

  Actual Average Record
Temperature  
Mean Temperature 68 °F -  
Max Temperature 80 °F 81 °F 100 °F (1959)
Min Temperature 57 °F 54 °F 48 °F (1954)
Cooling Degree Days 4    
Growing Degree Days 18 (Base 50)    
Moisture  
Dew Point 53 °F    
Average Humidity 74    
Maximum Humidity 94    
Minimum Humidity 32    
Precipitation  
Precipitation 0.00 in - - ()
Sea Level Pressure  
Sea Level Pressure 29.99 in    
Wind  
Wind Speed 5 mph (WNW)    
Max Wind Speed 13 mph    
Max Gust Speed -    
Visibility 10 miles    
Events      
Averages and records for this station are not official NWS values.
T = Trace of Precipitation, MM = Missing Value Source: NWS Daily Summary

Daily Weather History Graph

Daily Weather History Graph

Search for Another Location

Airport or City:

Trip Planner

Search our weather history database for the weather conditions in past years. The results will help you decide how hot, cold, wet, or windy it might be!

Date:

Astronomy

Aug. 12, 2013 Rise Set
Actual Time 6:22 AM PDT 8:04 PM PDT
Civil Twilight 5:54 AM PDT 8:32 PM PDT
Nautical Twilight 5:20 AM PDT 9:06 PM PDT
Astronomical Twilight 4:44 AM PDT 9:42 PM PDT
Moon 12:10 PM PDT (8/12) 11:10 PM PDT (8/12)
Length of Visible Light 14h 37m
Length of Day
13h 41m
Waxing Crescent, 32% of the Moon is Illuminated
Aug 12
Waxing Crescent
Aug 14
First Quarter
Aug 20
Full
Aug 28
Last Quarter
Sep 5
New

Hourly Weather History & Observations

Time (PDT) Temp. Dew Point Humidity Pressure Visibility Wind Dir Wind Speed Gust Speed Precip Events Conditions
12:15 AM 59.0 °F 53.6 °F 82% 30.00 in 10.0 mi South 3.5 mph - N/A   Clear
12:35 AM 59.0 °F 55.4 °F 88% 30.00 in 10.0 mi South 4.6 mph - N/A   Partly Cloudy
12:55 AM 59.0 °F 55.4 °F 88% 29.99 in 10.0 mi SSE 5.8 mph - N/A   Mostly Cloudy
1:15 AM 59.0 °F 55.4 °F 88% 29.99 in 10.0 mi SSE 5.8 mph - N/A   Overcast
1:35 AM 59.0 °F 55.4 °F 88% 29.99 in 10.0 mi SSW 4.6 mph - N/A   Overcast
1:55 AM 59.0 °F 55.4 °F 88% 29.98 in 10.0 mi SW 3.5 mph - N/A   Mostly Cloudy
2:15 AM 59.0 °F 55.4 °F 88% 29.98 in 10.0 mi SW 3.5 mph - N/A   Overcast
2:35 AM 59.0 °F 53.6 °F 82% 29.98 in 10.0 mi WNW 4.6 mph - N/A   Overcast
2:55 AM 57.2 °F 53.6 °F 88% 29.98 in 10.0 mi NW 3.5 mph - N/A   Overcast
3:15 AM 57.2 °F 53.6 °F 88% 29.98 in 10.0 mi NNW 5.8 mph - N/A   Mostly Cloudy
3:35 AM 57.2 °F 53.6 °F 88% 29.98 in 10.0 mi NW 3.5 mph - N/A   Mostly Cloudy
3:55 AM 57.2 °F 53.6 °F 88% 29.98 in 10.0 mi Calm Calm - N/A   Overcast
4:15 AM 57.2 °F 53.6 °F 88% 29.97 in 10.0 mi NW 3.5 mph - N/A   Overcast
4:35 AM 57.2 °F 53.6 °F 88% 29.97 in 10.0 mi Calm Calm - N/A   Overcast
4:55 AM 59.0 °F 53.6 °F 82% 29.98 in 10.0 mi Calm Calm - N/A   Overcast
5:15 AM 59.0 °F 55.4 °F 88% 29.98 in 10.0 mi SW 4.6 mph - N/A   Overcast
5:35 AM 59.0 °F 55.4 °F 88% 29.98 in 10.0 mi West 3.5 mph - N/A   Overcast
5:55 AM 59.0 °F 55.4 °F 88% 29.98 in 10.0 mi WNW 5.8 mph - N/A   Overcast
6:15 AM 57.2 °F 55.4 °F 94% 29.99 in 10.0 mi West 5.8 mph - N/A   Overcast
6:35 AM 59.0 °F 55.4 °F 88% 29.99 in 9.0 mi WNW 4.6 mph - N/A   Overcast
6:55 AM 59.0 °F 55.4 °F 88% 30.00 in 10.0 mi West 3.5 mph - N/A   Overcast
7:50 AM 59.0 °F 55.4 °F 88% 30.00 in 10.0 mi NNE 4.6 mph - N/A   Overcast
8:36 AM 59.0 °F 55.4 °F 88% 30.01 in 10.0 mi North 3.5 mph - N/A   Overcast
8:57 AM 62.6 °F 55.4 °F 77% 30.01 in 10.0 mi Calm Calm - N/A   Overcast
9:47 AM 64.4 °F 55.4 °F 73% 30.01 in 10.0 mi NNW 3.5 mph - N/A   Mostly Cloudy
10:47 AM 66.2 °F 57.2 °F 73% 30.01 in 10.0 mi NNE 3.5 mph - N/A   Partly Cloudy
11:47 AM 66.2 °F 59.0 °F 78% 30.00 in 10.0 mi NNE 8.1 mph - N/A   Clear
12:47 PM 66.2 °F 59.0 °F 78% 29.99 in 10.0 mi NNE 11.5 mph - N/A   Clear
1:50 PM 73.4 °F 59.0 °F 61% 29.98 in 10.0 mi North 12.7 mph - N/A   Clear
2:53 PM 77.0 °F 53.6 °F 44% 29.97 in 10.0 mi West 11.5 mph - N/A   Clear
3:55 PM 80.6 °F 50.0 °F 34% 29.96 in 10.0 mi West 11.5 mph - N/A   Clear
4:47 PM 80.6 °F 48.2 °F 32% 29.95 in 10.0 mi West 11.5 mph - N/A   Clear
5:47 PM 78.8 °F 50.0 °F 36% 29.95 in 10.0 mi WNW 12.7 mph - N/A   Clear
6:55 PM 73.4 °F 50.0 °F 44% 29.95 in 10.0 mi West 12.7 mph - N/A   Clear
7:55 PM 68.0 °F 50.0 °F 52% 29.97 in 10.0 mi WNW 12.7 mph - N/A   Partly Cloudy
8:47 PM 66.2 °F 48.2 °F 52% 29.98 in 10.0 mi NW 5.8 mph - N/A   Partly Cloudy
9:15 PM 64.4 °F 50.0 °F 59% 29.99 in 10.0 mi NW 6.9 mph - N/A   Clear
9:35 PM 64.4 °F 50.0 °F 59% 30.00 in 10.0 mi NW 6.9 mph - N/A   Clear
9:55 PM 62.6 °F 50.0 °F 63% 30.00 in 10.0 mi NW 6.9 mph - N/A   Clear
10:15 PM 62.6 °F 50.0 °F 63% 30.00 in 10.0 mi NW 5.8 mph - N/A   Clear
10:35 PM 60.8 °F 50.0 °F 68% 30.00 in 10.0 mi NW 6.9 mph - N/A   Clear
10:55 PM 59.0 °F 50.0 °F 72% 30.00 in 10.0 mi NW 5.8 mph - N/A   Clear
11:15 PM 59.0 °F 50.0 °F 72% 30.00 in 10.0 mi NW 5.8 mph - N/A   Clear
11:35 PM 59.0 °F 50.0 °F 72% 30.00 in 10.0 mi NW 4.6 mph - N/A   Clear
11:55 PM 59.0 °F 51.8 °F 77% 30.00 in 10.0 mi West 3.5 mph - N/A   Clear